Regional Weather Roundup
Issued by NWS

Home | Current Version | Previous Version | Text Only | Print | Product List | Glossary Off
Versions: 1 2 3 4 5 6 7 8 9 10 11 12 13 14 15 16 17 18 19 20 21 22 23 24 25 26 27 28 29 30 31 32 33 34 35 36 37 38 39 40 41 42 43 44 45 46 47 48 49 50

000
ASUS43 KMPX 290310
RWRMN
WEATHER ROUNDUP FOR MINNESOTA
NATIONAL WEATHER SERVICE TWIN CITIES/CHANHASSEN MN
1000 PM CDT TUE MAR 28 2017


NOTE: "FAIR" INDICATES FEW OR NO CLOUDS BELOW 12,000 FEET WITH NO
SIGNIFICANT WEATHER AND/OR OBSTRUCTIONS TO VISIBILITY. N/A MEANS
CURRENT SKY AND/OR WEATHER CONDITIONS ARE NOT AVAILABLE.

MNZ060>063-068>070-290400-
   Twin Cities Metro

CITY           SKY/WX    TMP DP  RH WIND       PRES   REMARKS
TWIN CITIES    CLOUDY    53  30  41 VRB3      30.19R
ST PAUL        CLOUDY    46  34  62 VRB3      30.19R
CRYSTAL        PTCLDY    47  26  44 CALM      30.18R
BLAINE         CLOUDY    46  27  46 CALM      30.19R
LAKEVILLE      PTCLDY    43  36  75 CALM      30.19R
EDEN PRAIRIE   CLOUDY    53  30  41 NE5       30.18R
SOUTH ST PAUL  CLOUDY    48  32  55 CALM      30.19R
LAKE ELMO      FAIR      41  34  75 CALM      30.20R
$$
MNZ001>005-007-008-013>017-022>024-027-028-290400-
   Northwest Minnesota

CITY           SKY/WX    TMP DP  RH WIND       PRES   REMARKS
BEMIDJI        MOCLDY    39  28  65 CALM      30.21S
HALLOCK        PTCLDY    37  34  87 E6        30.22S
ROSEAU         CLOUDY    39  30  70 E7        30.24S
WARROAD        CLOUDY    37  28  70 NE7       30.25S
THIEF RVR FALL PTCLDY    45  32  60 NE10      30.23R
CROOKSTON      CLOUDY    46  36  66 NE6       30.22S
FOSSTON        CLOUDY    36  28  75 CALM      30.22R
DETROIT LAKES  PTCLDY    46  34  61 NE5       30.20S
MOORHEAD       CLOUDY    46  39  76 N5        30.21S
PARK RAPIDS    CLOUDY    48  26  42 NE3       30.19R
MAHNOMEN       FAIR      42  32  67 NE3       30.21R
$$
MNZ006-009>011-018-025>026-290400-
   North Central Minnesota

CITY           SKY/WX    TMP DP  RH WIND       PRES   REMARKS
BAUDETTE       CLOUDY    36  28  73 CALM      30.25R
FLAG ISLAND    CLOUDY    37  25  60 N3        30.26R
INTL FALLS     CLEAR     40  25  55 NE6       30.25R
WASKISH        CLOUDY    41  30  65 NE3       30.24R
BIG FORK       CLEAR     45  25  45 NE3       30.23R
LONGVILLE      CLOUDY    36  30  80 CALM      30.21R
GRAND RAPIDS   CLEAR     45  28  51 CALM      30.23R
CRANE LAKE     CLEAR     27  25  93 CALM      30.27S
ORR            CLEAR     37  23  56 CALM      30.22R
COOK           CLEAR     36  25  64 CALM      30.24R
WALKER         FAIR      43  26  50 NE3       30.21R
$$
MNZ012-019>021-037-290400-
   Northeast Minnesota

CITY           SKY/WX    TMP DP  RH WIND       PRES   REMARKS
DULUTH         CLEAR     39  28  64 E6        30.23R
ELY            CLEAR     39  25  56 CALM      30.25R
HIBBING        CLEAR     38  26  62 NE3       30.22R
EVELETH        CLEAR     42  22  44 NE3       30.24R
DULUTH HARBOR  CLEAR     37  34  87 CALM      30.27R
TWO HARBORS    CLEAR     39  30  70 NE5       30.24R
GRAND MARAIS     N/A     37  27  67 NE7       30.31R
G MARAIS ARPRT CLEAR     32  21  64 NE7       30.27S WCI  26
$$
MNZ029>031-032-039>041-046>048-054>057-064-290400-
   West Central Minnesota

CITY           SKY/WX    TMP DP  RH WIND       PRES   REMARKS
FERGUS FALLS   CLOUDY    48  37  66 NE5       30.23R
WHEATON        CLOUDY    46  37  71 N3        30.21S
MORRIS         CLOUDY    50  39  66 NW5       30.19R
ALEXANDRIA     CLOUDY    50  33  52 CALM      30.20R
ELBOW LAKE     FAIR      44  40  83 CALM      30.20R
WADENA         CLOUDY    48  30  49 E5        30.20R
GLENWOOD       PTCLDY    48  32  53 CALM      30.20R
APPLETON       CLOUDY    45  36  70 N5        30.19R
BENSON         CLOUDY    45  30  57 CALM      30.21R
ORTONVILLE     CLOUDY    48  37  66 N5        30.19R
MADISON        CLOUDY    52  36  54 E7        30.18S
WILLMAR        FAIR      48  36  61 CALM      30.20S
$$
MNZ033>034-036-042>043-049>051-058-059-290400-
   Central Minnesota

CITY           SKY/WX    TMP DP  RH WIND       PRES   REMARKS
ST CLOUD       CLOUDY    42  30  62 CALM      30.19R
SAUK CENTRE    FAIR      44  33  64 CALM      30.20R
PAYNESVILLE    PTCLDY    41  32  69 CALM      30.20R
AITKIN         PTCLDY    37  27  65 CALM      30.19R
PINE RIVER     PTCLDY    41  30  65 CALM      30.23R
BRAINERD       CLOUDY    43  29  57 CALM      30.21R
STAPLES        CLOUDY    48  28  46 CALM      30.21R
LONG PRAIRIE   CLOUDY    43  34  70 CALM      30.20R
LITTLE FALLS   CLOUDY    43  32  65 CALM      30.20R
LITCHFIELD     CLOUDY    48  36  61 CALM      30.20R
BUFFALO        PTCLDY    44  30  59 CALM      30.20R
MAPLE LAKE     PTCLDY    42  34  75 CALM      30.20R
HUTCHINSON     PTCLDY    47  36  66 NE3       30.20R
$$
MNZ037-044-045-052-053-290400-
   East Central Minnesota

CITY           SKY/WX    TMP DP  RH WIND       PRES   REMARKS
PRINCETON      CLEAR     39  30  70 CALM      30.20R
MORA           CLEAR     36  32  87 CALM      30.21S
CAMBRIDGE      CLEAR     43  28  56 CALM      30.18R
RUSH CITY      PTCLDY    43  28  55 CALM      30.19S
MOOSE LAKE     CLOUDY    39  30  70 NE6       30.21R
CLOQUET        CLEAR     37  27  65 CALM      30.23R
MCGREGOR       PTCLDY    39  30  70 CALM      30.21R
$$
MNZ071>073-080-081-089-090-097-098-290400-
   Southwest Minnesota

CITY           SKY/WX    TMP DP  RH WIND       PRES   REMARKS
MONTEVIDEO     CLOUDY    46  36  66 E5        30.19R
GRANITE FALLS  CLOUDY    51  34  53 NE6       30.19S
CANBY          MOCLDY    47  39  72 CALM      30.19R
MARSHALL       PTCLDY    51  35  54 SE5       30.18R
REDWOOD FALLS  CLOUDY    54  32  43 E5        30.18R
OLIVIA         MOCLDY    50  32  50 NE5       30.17S
PIPESTONE      PTCLDY    46  32  57 SE3       30.16R
WINDOM         CLOUDY    45  37  76 CALM      30.17S
WORTHINGTON    PTCLDY    46  39  76 E3        30.17R
JACKSON        CLOUDY    45  37  76 CALM      30.17R
TRACY          PTCLDY    48  38  66 CALM      30.18R
SLAYTON        CLOUDY    43  36  77 CALM      30.18R
$$
MNZ065>067-074>077-082>085-091>093-290400-
   South Central Minnesota

CITY           SKY/WX    TMP DP  RH WIND       PRES   REMARKS
MANKATO        CLOUDY    51  37  58 E5        30.19R
NEW ULM        CLOUDY    50  34  53 CALM      30.18R
ST JAMES       CLOUDY    46  37  71 CALM      30.19R
FAIRMONT       PTCLDY    47  40  76 E5        30.18R
GLENCOE        CLOUDY    48  36  61 CALM      30.18R
FARIBAULT      PTCLDY    46  37  71 CALM      30.19R
OWATONNA       CLOUDY    48  36  61 CALM      30.18S
WASECA         PTCLDY    45  36  70 E8        30.19S
ALBERT LEA     CLOUDY    48  36  61 E5        30.18R
$$
MNZ078>079-086>088-094>096-290400-
   Southeast Minnesota

CITY           SKY/WX    TMP DP  RH WIND       PRES   REMARKS
ROCHESTER      CLOUDY    50  36  58 E6        30.18S
RED WING       CLOUDY    43  30  61 CALM      30.18S
STANTON        PTCLDY    45  38  75 CALM      30.17S
DODGE CENTER   PTCLDY    46  36  66 E5        30.18F
WINONA         CLOUDY    43  37  81 CALM      30.19S
AUSTIN         CLOUDY    45  37  76 E3        30.17F
PRESTON        PTCLDY    48  34  57 CALM      30.19S
$$
ABBREVIATIONS USED IN REMARKS
   TC - TEMPERATURES IN CELSIUS
  WCI - WIND CHILL INDEX
   HX - HEAT INDEX
  VSB - VISIBILITY
$$



USA.gov is the U.S. government's official web portal to all federal, state and local government web resources and services.